DW0000 Weather Reports


time (UTC)temp
F
wind
direction
speed
knots
gust
knots
rain 1hr
in
rain 24hr
in
rain mn
in
humidity
%
barometer
mb
20260506184505 59 103 4.3 6.1 0.00 0.03 0.02 99 1023.6
20260506183506 59 93 5.2 7.0 0.00 0.03 0.02 99 1023.7
20260506181005 58 95 3.5 5.2 0.00 0.02 0.02 99 1023.6
20260506180504 58 99 3.5 6.1 0.00 0.02 0.02 99 1023.5
20260506180005 58 103 4.3 7.0 0.00 0.02 0.02 99 1023.6
20260506175506 59 103 4.3 5.2 0.00 0.02 0.02 99 1023.7
20260506173506 59 91 5.2 6.1 0.00 0.02 0.02 99 1023.7
20260506173005 59 91 4.3 6.1 0.00 0.02 0.02 99 1023.7
20260506172505 59 95 3.5 5.2 0.00 0.02 0.02 99 1023.6
20260506171506 59 103 3.5 5.2 0.00 0.02 0.02 99 1023.7
20260506171004 59 105 4.3 6.1 0.00 0.02 0.02 99 1023.7
20260506170504 59 115 3.5 5.2 0.00 0.02 0.02 99 1023.8
20260506170007 59 109 2.6 4.3 0.00 0.02 0.02 99 1023.8
20260506165508 60 110 2.6 5.2 0.00 0.02 0.02 99 1023.8
20260506165006 60 109 3.5 5.2 0.00 0.02 0.02 99 1023.8
20260506164507 60 95 2.6 4.3 0.00 0.02 0.02 99 1023.8
20260506162506 60 78 2.6 4.3 0.00 0.02 0.02 99 1024.2
20260506161508 60 104 2.6 4.3 0.00 0.02 0.02 99 1024.3
20260506161006 60 103 2.6 4.3 0.00 0.02 0.02 99 1024.1
20260506160507 60 109 2.6 4.3 0.00 0.02 0.02 99 1024.3
20260506155508 60 117 2.6 4.3 0.00 0.02 0.02 99 1024.3
20260506155007 60 104 2.6 4.3 0.00 0.02 0.02 99 1024.5
20260506154506 60 82 2.6 2.6 0.00 0.02 0.02 99 1024.3
20260506154006 60 56 0.9 1.7 0.00 0.02 0.02 99 1024.4
20260506153006 60 85 1.7 2.6 0.00 0.02 0.02 99 1024.5
20260506152507 60 93 1.7 1.7 0.00 0.02 0.02 99 1024.5
20260506152008 60 107 1.7 2.6 0.00 0.02 0.02 99 1024.4
20260506151507 60 108 1.7 4.3 0.00 0.02 0.02 99 1024.5
20260506151006 60 119 1.7 2.6 0.00 0.02 0.02 99 1024.5
20260506150506 60 117 1.7 1.7 0.00 0.02 0.02 99 1024.6
20260506150006 60 83 0.9 1.7 0.00 0.02 0.02 99 1024.6
20260506145006 60 90 1.7 2.6 0.00 0.02 0.02 99 1024.5
20260506144006 59 91 0.9 1.7 0.00 0.02 0.02 99 1024.8
20260506143006 59 22 0.0 0.9 0.00 0.02 0.02 99 1025.1
20260506142007 59 358 0.9 2.6 0.00 0.02 0.02 99 1025.1
20260506141006 59 73 1.7 2.6 0.00 0.02 0.02 99 1025.0
20260506140506 59 71 1.7 4.3 0.00 0.02 0.02 99 1024.9
20260506135506 59 87 2.6 4.3 0.00 0.02 0.02 99 1025.2
20260506134506 59 95 2.6 4.3 0.00 0.02 0.02 99 1025.1
20260506134007 58 101 2.6 6.1 0.00 0.02 0.02 99 1025.2
20260506133507 58 124 2.6 5.2 0.00 0.02 0.02 99 1025.3
20260506133008 58 119 3.5 5.2 0.00 0.02 0.02 99 1025.5
20260506125008 58 89 2.6 4.3 0.01 0.02 0.02 99 1025.6
20260506123506 59 99 2.6 5.2 0.02 0.02 0.02 99 1025.6
20260506123006 59 87 3.5 7.0 0.02 0.02 0.02 99 1025.6
20260506122006 59 130 2.6 6.1 0.02 0.02 0.02 99 1025.7
20260506121506 59 117 4.3 6.1 0.02 0.02 0.02 99 1025.9
20260506121007 59 46 2.6 6.1 0.01 0.02 0.01 99 1025.8
20260506120006 59 58 0.9 2.6 0.00 0.00 0.00 99 1025.7
20260506115507 59 344 0.9 1.7 0.00 0.00 0.00 99 1025.8
20260506115008 59 37 1.7 7.0 0.00 0.00 0.00 99 1025.9
20260506114506 59 34 2.6 6.1 0.00 0.00 0.00 99 1025.5
20260506112508 59 97 5.2 7.0 0.00 0.00 0.00 98 1025.8
20260506112006 58 91 4.3 7.0 0.00 0.00 0.00 98 1025.9
20260506110006 59 90 2.6 4.3 0.00 0.00 0.00 97 1025.9
20260506105506 59 99 1.7 2.6 0.00 0.00 0.00 97 1025.9
20260506104006 59 84 1.7 4.3 0.00 0.00 0.00 96 1026.1
20260506103506 59 100 2.6 4.3 0.00 0.00 0.00 96 1026.1
20260506101507 60 42 0.9 4.3 0.00 0.00 0.00 96 1026.2
20260506101006 60 98 1.7 2.6 0.00 0.00 0.00 96 1026.1
20260506094507 59 85 2.6 4.3 0.00 0.00 0.00 96 1026.2
20260506094008 59 91 1.7 4.3 0.00 0.00 0.00 96 1026.1
20260506092006 59 94 3.5 6.1 0.00 0.00 0.00 96 1026.0
20260506091008 59 101 3.5 5.2 0.00 0.00 0.00 95 1026.0
20260506090506 60 91 4.3 6.1 0.00 0.00 0.00 95 1026.0
20260506090006 60 94 3.5 6.1 0.00 0.00 0.00 95 1026.1
20260506085506 60 89 4.3 7.0 0.00 0.00 0.00 95 1026.0
20260506084006 60 90 2.6 5.2 0.00 0.00 0.00 94 1026.1
20260506083008 60 88 4.3 6.1 0.00 0.00 0.00 94 1026.1
20260506082506 60 100 4.3 7.0 0.00 0.00 0.00 94 1026.0
20260506081506 60 86 3.5 7.0 0.00 0.00 0.00 93 1026.1
20260506081007 60 99 3.5 7.0 0.00 0.00 0.00 93 1026.2
20260506073507 61 81 2.6 5.2 0.00 0.00 0.00 92 1026.1
20260506073006 61 87 1.7 5.2 0.00 0.00 0.00 91 1026.1
20260506071006 61 66 3.5 6.1 0.00 0.00 0.00 90 1026.2
20260506070506 61 70 3.5 6.1 0.00 0.00 0.00 89 1026.1
20260506062008 61 60 1.7 7.0 0.00 0.00 0.00 87 1025.9
20260506061506 62 58 1.7 5.2 0.00 0.00 0.00 86 1026.0
20260506061007 62 41 2.6 6.1 0.00 0.00 0.00 86 1025.8
20260506051006 64 18 5.2 8.7 0.00 0.00 0.00 82 1026.0
20260506043007 67 39 6.1 13.9 0.00 0.00 0.00 79 1026.0
20260506042006 67 18 7.0 13.0 0.00 0.00 0.00 78 1026.0
20260506041506 67 15 8.7 13.0 0.00 0.00 0.00 78 1026.1
20260506041006 67 29 7.8 11.3 0.00 0.00 0.00 78 1026.0
20260506035007 68 348 7.8 11.3 0.00 0.00 0.00 77 1026.1
20260506034505 68 36 5.2 10.4 0.00 0.00 0.00 76 1026.1
20260506032007 69 43 7.0 12.2 0.00 0.00 0.00 76 1026.1
20260506031505 69 24 6.1 12.2 0.00 0.00 0.00 75 1026.1
20260506030505 69 12 4.3 12.2 0.00 0.00 0.00 75 1026.1
20260506030007 70 30 6.1 12.2 0.00 0.00 0.00 76 1026.2
20260506025505 70 50 4.3 10.4 0.00 0.00 0.00 75 1026.2
20260506024507 69 61 4.3 10.4 0.00 0.00 0.00 76 1026.4
20260506023007 69 28 4.3 11.3 0.00 0.00 0.00 75 1026.4
20260506021505 68 0 7.8 13.0 0.00 0.00 0.00 77 1026.2
20260506021007 68 47 7.0 11.3 0.00 0.00 0.00 76 1026.3
20260506020505 69 31 6.1 10.4 0.00 0.00 0.00 76 1026.4
20260506015507 70 39 3.5 11.3 0.00 0.00 0.00 75 1026.3
20260506015005 70 36 5.2 11.3 0.00 0.00 0.00 76 1026.4
20260506014505 70 44 7.8 12.2 0.00 0.00 0.00 75 1026.4
20260506014007 69 42 5.2 14.8 0.00 0.00 0.00 76 1026.3
20260506013006 69 27 5.2 13.0 0.00 0.00 0.00 77 1026.4
20260506011505 67 43 5.2 10.4 0.00 0.00 0.00 81 1026.6
20260506010005 67 12 6.1 8.7 0.00 0.00 0.00 80 1026.7
20260506005506 68 41 5.2 11.3 0.00 0.00 0.00 79 1026.7
20260506004505 67 21 7.0 12.2 0.00 0.00 0.00 80 1026.7
20260506003006 68 31 6.1 12.2 0.00 0.00 0.00 79 1027.0
20260506002005 68 43 5.2 10.4 0.00 0.00 0.00 77 1027.1
20260506001505 68 10 5.2 11.3 0.00 0.00 0.00 78 1027.1
20260506000005 69 35 5.2 11.3 0.00 0.00 0.00 79 1027.3
20260505235005 67 31 6.1 10.4 0.00 0.00 0.00 80 1027.5
20260505234506 67 45 5.2 11.3 0.00 0.00 0.00 81 1027.6
20260505234005 67 77 5.2 13.9 0.00 0.00 0.00 80 1027.6
20260505233505 67 113 4.3 7.8 0.00 0.00 0.00 80 1027.6
20260505233006 67 71 3.5 7.8 0.00 0.00 0.00 82 1027.8
20260505230005 65 20 2.6 7.8 0.00 0.00 0.00 87 1027.9
20260505225005 65 51 2.6 7.8 0.00 0.00 0.00 88 1028.0
20260505224507 64 50 4.3 8.7 0.00 0.00 0.00 88 1028.0
20260505224005 64 36 3.5 11.3 0.00 0.00 0.00 88 1028.0
20260505223505 64 43 2.6 11.3 0.00 0.00 0.00 89 1028.1
20260505223006 64 58 1.7 5.2 0.00 0.00 0.00 89 1028.1
20260505222506 64 68 2.6 8.7 0.00 0.00 0.00 89 1028.1
20260505220505 63 32 2.6 5.2 0.00 0.00 0.00 92 1028.3
20260505215505 63 71 2.6 6.1 0.00 0.00 0.00 93 1028.3
20260505215007 63 79 2.6 7.0 0.00 0.00 0.00 95 1028.3
20260505214505 63 67 3.5 6.1 0.00 0.00 0.00 96 1028.4
20260505212504 62 82 0.9 2.6 0.00 0.00 0.00 99 1028.3
20260505211005 61 58 0.9 2.6 0.00 0.00 0.00 99 1028.5
20260505210505 60 52 1.7 2.6 0.00 0.00 0.00 99 1028.5
20260505205005 60 80 1.7 4.3 0.00 0.00 0.00 99 1028.4
20260505204505 59 81 1.7 4.3 0.00 0.00 0.00 99 1028.5
20260505203006 58 86 1.7 4.3 0.00 0.00 0.00 99 1028.4
20260505201505 57 109 1.7 4.3 0.00 0.00 0.00 99 1028.3
20260505201005 57 101 1.7 4.3 0.00 0.00 0.00 99 1028.2
20260505200005 57 92 1.7 4.3 0.00 0.00 0.00 98 1028.0
20260505194504 56 80 2.6 5.2 0.00 0.00 0.00 98 1027.8
20260505194005 56 97 2.6 4.3 0.00 0.00 0.00 98 1027.8
20260505193504 56 87 2.6 4.3 0.00 0.00 0.00 98 1028.0
20260505192504 56 93 2.6 4.3 0.00 0.00 0.00 98 1027.8
20260505190505 56 85 1.7 4.3 0.00 0.00 0.00 97 1027.8
20260505190005 56 79 2.6 4.3 0.00 0.00 0.00 97 1027.6